Change the Weather History Date:

Saturday, March 23, 2013

  Actual Average Record
Temperature  
Mean Temperature 38 °F -  
Max Temperature 46 °F 49 °F 71 °F (2012)
Min Temperature 30 °F 34 °F 19 °F (2004)
Degree Days  
Heating Degree Days 27    
Moisture  
Dew Point 19 °F    
Average Humidity 48    
Maximum Humidity 64    
Minimum Humidity 32    
Precipitation  
Precipitation 0.00 in - - ()
Sea Level Pressure  
Sea Level Pressure 29.89 in    
Wind  
Wind Speed 11 mph (WNW)    
Max Wind Speed 25 mph    
Max Gust Speed 36 mph    
Visibility 10 miles    
Events      
Averages and records for this station are not official NWS values.
T = Trace of Precipitation, MM = Missing Value Source: NWS Daily Summary

Daily Weather History Graph

Daily Weather History Graph

Search for Another Location

Airport or City:

Trip Planner

Search our weather history database for the weather conditions in past years. The results will help you decide how hot, cold, wet, or windy it might be!

Date:

Astronomy

Mar. 23, 2013 Rise Set
Actual Time 6:54 AM EDT 7:11 PM EDT
Civil Twilight 6:27 AM EDT 7:39 PM EDT
Nautical Twilight 5:55 AM EDT 8:10 PM EDT
Astronomical Twilight 5:23 AM EDT 8:43 PM EDT
Moon 3:35 PM EDT (3/23) 4:29 AM EDT (3/23)
Length of Visible Light 13h 11m
Length of Day
12h 17m
Waxing Gibbous, 85% of the Moon is Illuminated
Mar 23
Waxing Gibbous
Mar 27
Full
Apr 3
Last Quarter
Apr 10
New
Apr 18
First Quarter

Hourly Weather History & Observations

Time (EDT) Temp. Windchill Dew Point Humidity Pressure Visibility Wind Dir Wind Speed Gust Speed Precip Events Conditions
12:15 AM 33.8 °F 26.4 °F 19.4 °F 56% 29.91 in 10.0 mi West 9.2 mph - N/A   Clear
12:35 AM 33.8 °F 27.7 °F 19.4 °F 56% 29.91 in 10.0 mi West 6.9 mph - N/A   Clear
12:55 AM 33.8 °F 27.7 °F 19.4 °F 56% 29.91 in 10.0 mi West 6.9 mph - N/A   Clear
1:15 AM 32.0 °F 23.6 °F 19.4 °F 60% 29.92 in 10.0 mi West 10.4 mph - N/A   Clear
1:35 AM 32.0 °F 25.6 °F 19.4 °F 60% 29.91 in 10.0 mi West 6.9 mph - N/A   Clear
1:55 AM 32.0 °F 24.2 °F 19.4 °F 60% 29.91 in 10.0 mi West 9.2 mph - N/A   Clear
2:15 AM 32.0 °F 23.0 °F 19.4 °F 60% 29.91 in 10.0 mi West 11.5 mph - N/A   Clear
2:35 AM 32.0 °F 24.2 °F 19.4 °F 60% 29.91 in 10.0 mi West 9.2 mph - N/A   Clear
2:55 AM 30.2 °F 22.6 °F 19.4 °F 64% 29.91 in 10.0 mi West 8.1 mph - N/A   Clear
3:15 AM 30.2 °F 22.6 °F 19.4 °F 64% 29.90 in 10.0 mi West 8.1 mph - N/A   Clear
3:35 AM 30.2 °F 22.6 °F 19.4 °F 64% 29.90 in 10.0 mi West 8.1 mph - N/A   Clear
3:55 AM 30.2 °F 23.4 °F 19.4 °F 64% 29.89 in 10.0 mi West 6.9 mph - N/A   Clear
4:15 AM 30.2 °F 22.6 °F 19.4 °F 64% 29.89 in 10.0 mi West 8.1 mph - N/A   Clear
4:35 AM 30.2 °F 21.9 °F 19.4 °F 64% 29.89 in 10.0 mi West 9.2 mph - N/A   Scattered Clouds
4:55 AM 30.2 °F 22.6 °F 19.4 °F 64% 29.90 in 10.0 mi West 8.1 mph - N/A   Scattered Clouds
5:15 AM 30.2 °F 22.6 °F 19.4 °F 64% 29.90 in 10.0 mi West 8.1 mph - N/A   Clear
5:35 AM 30.2 °F 22.6 °F 19.4 °F 64% 29.90 in 10.0 mi West 8.1 mph - N/A   Clear
5:55 AM 30.2 °F 21.9 °F 19.4 °F 64% 29.91 in 10.0 mi West 9.2 mph - N/A   Clear
6:15 AM 30.2 °F 21.9 °F 19.4 °F 64% 29.91 in 10.0 mi WSW 9.2 mph - N/A   Clear
6:35 AM 30.2 °F 22.6 °F 19.4 °F 64% 29.91 in 10.0 mi West 8.1 mph - N/A   Clear
6:55 AM 30.2 °F 22.6 °F 19.4 °F 64% 29.92 in 10.0 mi West 8.1 mph - N/A   Clear
7:15 AM 30.2 °F 23.4 °F 19.4 °F 64% 29.92 in 10.0 mi West 6.9 mph - N/A   Clear
7:35 AM 30.2 °F 22.6 °F 19.4 °F 64% 29.92 in 10.0 mi West 8.1 mph - N/A   Clear
7:55 AM 30.2 °F 22.6 °F 19.4 °F 64% 29.92 in 10.0 mi West 8.1 mph - N/A   Clear
8:15 AM 32.0 °F 26.4 °F 19.4 °F 60% 29.91 in 10.0 mi West 5.8 mph - N/A   Clear
8:35 AM 33.8 °F 25.8 °F 19.4 °F 56% 29.91 in 10.0 mi WNW 10.4 mph - N/A   Clear
8:55 AM 35.6 °F 27.1 °F 19.4 °F 52% 29.91 in 10.0 mi West 12.7 mph 19.6 mph N/A   Clear
9:15 AM 35.6 °F 26.6 °F 19.4 °F 52% 29.91 in 10.0 mi WNW 13.8 mph 21.9 mph N/A   Clear
9:35 AM 37.4 °F 28.5 °F 19.4 °F 48% 29.90 in 10.0 mi NW 15.0 mph 21.9 mph N/A   Clear
9:55 AM 37.4 °F 28.5 °F 19.4 °F 48% 29.90 in 10.0 mi WNW 15.0 mph 23.0 mph N/A   Clear
10:15 AM 39.2 °F 29.8 °F 19.4 °F 45% 29.90 in 10.0 mi West 18.4 mph 25.3 mph N/A   Clear
10:35 AM 39.2 °F 29.6 °F 19.4 °F 45% 29.90 in 10.0 mi NW 19.6 mph 27.6 mph N/A   Clear
10:55 AM 39.2 °F 30.5 °F 19.4 °F 45% 29.90 in 10.0 mi WNW 16.1 mph 27.6 mph N/A   Clear
11:15 AM 42.8 °F 35.1 °F 21.2 °F 42% 29.89 in 10.0 mi West 16.1 mph 25.3 mph N/A   Clear
11:35 AM 42.8 °F 35.4 °F 21.2 °F 42% 29.89 in 10.0 mi West 15.0 mph 26.5 mph N/A   Clear
11:55 AM 42.8 °F 34.3 °F 19.4 °F 39% 29.88 in 10.0 mi WNW 19.6 mph 25.3 mph N/A   Clear
12:15 PM 44.6 °F 36.6 °F 21.2 °F 39% 29.88 in 10.0 mi West 19.6 mph 27.6 mph N/A   Clear
12:35 PM 44.6 °F 36.4 °F 21.2 °F 39% 29.88 in 10.0 mi WNW 20.7 mph 27.6 mph N/A   Clear
12:55 PM 44.6 °F 37.2 °F 19.4 °F 37% 29.87 in 10.0 mi WNW 17.3 mph 24.2 mph N/A   Partly Cloudy
1:15 PM 44.6 °F 36.9 °F 19.4 °F 37% 29.87 in 10.0 mi WNW 18.4 mph 27.6 mph N/A   Partly Cloudy
1:35 PM 46.4 °F 37.9 °F 19.4 °F 34% 29.86 in 10.0 mi WNW 25.3 mph 35.7 mph N/A   Partly Cloudy
2:15 PM 46.4 °F 38.7 °F 19.4 °F 34% 29.85 in 10.0 mi WNW 20.7 mph 27.6 mph N/A   Clear
2:35 PM 46.4 °F 39.2 °F 19.4 °F 34% 29.84 in 10.0 mi West 18.4 mph 26.5 mph N/A   Clear
2:55 PM 46.4 °F 39.0 °F 19.4 °F 34% 29.84 in 10.0 mi NW 19.6 mph 31.1 mph N/A   Clear
3:15 PM 46.4 °F 39.2 °F 17.6 °F 32% 29.84 in 10.0 mi WNW 18.4 mph 26.5 mph N/A   Clear
3:35 PM 46.4 °F 39.8 °F 19.4 °F 34% 29.83 in 10.0 mi WNW 16.1 mph 27.6 mph N/A   Partly Cloudy
3:55 PM 46.4 °F 39.0 °F 19.4 °F 34% 29.83 in 10.0 mi NW 19.6 mph 29.9 mph N/A   Partly Cloudy
4:15 PM 46.4 °F 39.5 °F 19.4 °F 34% 29.84 in 10.0 mi WNW 17.3 mph 27.6 mph N/A   Clear
4:35 PM 46.4 °F 38.3 °F 19.4 °F 34% 29.84 in 10.0 mi WNW 23.0 mph 29.9 mph N/A   Clear
4:55 PM 46.4 °F 40.1 °F 17.6 °F 32% 29.84 in 10.0 mi WNW 15.0 mph 29.9 mph N/A   Partly Cloudy
5:15 PM 46.4 °F 39.2 °F 19.4 °F 34% 29.84 in 10.0 mi NW 18.4 mph 25.3 mph N/A   Partly Cloudy
5:35 PM 46.4 °F 39.0 °F 17.6 °F 32% 29.85 in 10.0 mi WNW 19.6 mph 27.6 mph N/A   Mostly Cloudy
5:55 PM 46.4 °F 39.2 °F 17.6 °F 32% 29.85 in 10.0 mi West 18.4 mph 26.5 mph N/A   Scattered Clouds
6:15 PM 44.6 °F 37.4 °F 17.6 °F 34% 29.85 in 10.0 mi WNW 16.1 mph 23.0 mph N/A   Partly Cloudy
6:35 PM 44.6 °F 38.4 °F 17.6 °F 34% 29.86 in 10.0 mi WNW 12.7 mph 18.4 mph N/A   Partly Cloudy
6:55 PM 44.6 °F 38.4 °F 17.6 °F 34% 29.87 in 10.0 mi WNW 12.7 mph 20.7 mph N/A   Scattered Clouds
7:15 PM 42.8 °F 35.1 °F 17.6 °F 36% 29.87 in 10.0 mi NW 16.1 mph 23.0 mph N/A   Partly Cloudy
7:35 PM 42.8 °F 35.8 °F 17.6 °F 36% 29.88 in 10.0 mi NW 13.8 mph 24.2 mph N/A   Partly Cloudy
7:55 PM 42.8 °F 37.0 °F 17.6 °F 36% 29.89 in 10.0 mi NW 10.4 mph 18.4 mph N/A   Clear
8:15 PM 42.8 °F 37.0 °F 17.6 °F 36% 29.90 in 10.0 mi WNW 10.4 mph - N/A   Clear
8:35 PM 41.0 °F 36.4 °F 17.6 °F 39% 29.90 in 10.0 mi NW 6.9 mph - N/A   Partly Cloudy
8:55 PM 39.2 °F 33.0 °F 17.6 °F 42% 29.91 in 10.0 mi WNW 9.2 mph - N/A   Mostly Cloudy
9:15 PM 39.2 °F 32.0 °F 17.6 °F 42% 29.91 in 10.0 mi NW 11.5 mph - N/A   Partly Cloudy
9:35 PM 39.2 °F 34.2 °F 17.6 °F 42% 29.92 in 10.0 mi NW 6.9 mph - N/A   Clear
9:55 PM 39.2 °F 33.0 °F 17.6 °F 42% 29.93 in 10.0 mi NW 9.2 mph - N/A   Clear
10:15 PM 39.2 °F 33.6 °F 17.6 °F 42% 29.93 in 10.0 mi WNW 8.1 mph - N/A   Clear
10:35 PM 37.4 °F 32.8 °F 17.6 °F 45% 29.92 in 10.0 mi NW 5.8 mph - N/A   Clear
10:55 PM 37.4 °F 30.8 °F 17.6 °F 45% 29.93 in 10.0 mi NW 9.2 mph - N/A   Clear
11:15 PM 37.4 °F 29.3 °F 17.6 °F 45% 29.94 in 10.0 mi NW 12.7 mph - N/A   Clear
11:35 PM 37.4 °F 30.8 °F 17.6 °F 45% 29.94 in 10.0 mi NNW 9.2 mph - N/A   Clear
11:55 PM 35.6 °F 28.6 °F 17.6 °F 48% 29.94 in 10.0 mi NW 9.2 mph - N/A   Clear